Pisa, Italy

2:20 PM CEST on July 23, 2017 (GMT +0200)
San Giusto

Weather History for LIRP - December, 2012

Change the Weather History Date:

Friday, December 28, 2012

  Actual Average Record
Temperature  
Mean Temperature 53 °F -  
Max Temperature 64 °F 52 °F 64 °F (2012)
Min Temperature 42 °F 36 °F 24 °F (1996)
Degree Days  
Heating Degree Days 12    
Growing Degree Days 3 (Base 50)    
Moisture  
Dew Point 45 °F    
Average Humidity 77    
Maximum Humidity 100    
Minimum Humidity 30    
Precipitation  
Precipitation 0.00 in 0.10 in - ()
Sea Level Pressure  
Sea Level Pressure 30.10 in    
Wind  
Wind Speed 8 mph ()    
Max Wind Speed 20 mph    
Max Gust Speed 31 mph    
Visibility 6.3 miles    
Events Fog    
Averages and records for this station are not official NWS values.
T = Trace of Precipitation, MM = Missing Value Source: Averaged Metar Reports

Daily Weather History Graph

Daily Weather History Graph

Search for Another Location

Airport or City:

Trip Planner

Search our weather history database for the weather conditions in past years. The results will help you decide how hot, cold, wet, or windy it might be!

Date:

Astronomy

Dec. 28, 2012 Rise Set
Actual Time 7:51 AM CET 4:48 PM CET
Civil Twilight 7:18 AM CET 5:21 PM CET
Nautical Twilight 6:42 AM CET 5:58 PM CET
Astronomical Twilight 6:07 AM CET 6:32 PM CET
Moon 5:12 PM CET (12/28) 7:32 AM CET (12/28)
Length of Visible Light 10h 03m
Length of Day
8h 57m
Full, 100% of the Moon is Illuminated
Dec 28
Full
Jan 5
Last Quarter
Jan 11
New
Jan 19
First Quarter
Jan 27
Full

Hourly Weather History & Observations

Time (CET) Temp. Windchill Dew Point Humidity Pressure Visibility Wind Dir Wind Speed Gust Speed Precip Events Conditions
12:15 AM 57.2 °F - 51.8 °F 82% 30.01 in 6.2 mi WSW 19.6 mph 31.1 mph N/A   Mostly Cloudy
12:45 AM 57.2 °F - 51.8 °F 82% 30.01 in 6.2 mi WSW 17.3 mph - N/A   Mostly Cloudy
1:00 AM 56 °F - 52 °F 82% 30.01 in 6 mi WSW 17.3 mph - -   Partly Cloudy
1:15 AM 55.4 °F - 51.8 °F 88% 29.98 in 6.2 mi West 16.1 mph - N/A   Scattered Clouds
1:45 AM 55.4 °F - 51.8 °F 88% 29.98 in 6.2 mi West 17.3 mph - N/A   Scattered Clouds
2:15 AM 53.6 °F - 50.0 °F 88% 30.01 in 6.2 mi WSW 12.7 mph - N/A   Scattered Clouds
2:45 AM 51.8 °F - 50.0 °F 94% 30.01 in 6.2 mi WSW 8.1 mph - N/A   Partly Cloudy
3:15 AM 51.8 °F - 48.2 °F 88% 30.01 in 6.2 mi West 6.9 mph - N/A   Partly Cloudy
3:45 AM 50.0 °F - 48.2 °F 94% 30.01 in 6.2 mi West 6.9 mph - N/A   Partly Cloudy
4:15 AM 48.2 °F - 46.4 °F 93% 30.01 in 6.2 mi WSW 3.5 mph - N/A   Scattered Clouds
4:45 AM 48.2 °F - 46.4 °F 93% 30.01 in 6.2 mi WSW 2.3 mph - N/A   Scattered Clouds
5:15 AM 48.2 °F - 44.6 °F 87% 30.01 in 6.2 mi South 3.5 mph - N/A   Scattered Clouds
5:45 AM 48.2 °F - 44.6 °F 87% 30.01 in 6.2 mi South 4.6 mph - N/A   Scattered Clouds
6:15 AM 46.4 °F - 46.4 °F 100% 30.04 in 6.2 mi ENE 2.3 mph - N/A   Partly Cloudy
6:45 AM 46.4 °F - 44.6 °F 93% 30.04 in 6.2 mi East 2.3 mph - N/A Fog Shallow Fog
7:00 AM 46 °F - 45 °F 94% 30.06 in 6 mi East 2.3 mph - - Fog Patches of Fog
7:15 AM 46.4 °F - 44.6 °F 93% 30.04 in 6.2 mi Variable 1.2 mph - N/A Fog Shallow Fog
7:45 AM 46.4 °F 45.2 °F 44.6 °F 93% 30.04 in 5.0 mi WNW 3.5 mph - N/A Fog Patches of Fog
8:15 AM 46.4 °F - 44.6 °F 93% 30.06 in 5.0 mi NE 2.3 mph - N/A Fog Patches of Fog
8:45 AM 46.4 °F 45.2 °F 44.6 °F 93% 30.06 in 5.0 mi SE 3.5 mph - N/A   Unknown
9:15 AM 48.2 °F - 46.4 °F 93% 30.06 in - SSE 3.5 mph - N/A   Clear
9:45 AM 48.2 °F - 46.4 °F 93% 30.09 in - ESE 5.8 mph - N/A   Clear
10:15 AM 50.0 °F - 48.2 °F 94% 30.09 in - ESE 5.8 mph - N/A   Clear
10:45 AM 51.8 °F - 50.0 °F 94% 30.12 in - SSE 4.6 mph - N/A   Clear
11:15 AM 53.6 °F - 50.0 °F 88% 30.12 in - SE 3.5 mph - N/A   Clear
11:45 AM 55.4 °F - 50.0 °F 82% 30.12 in - SSE 4.6 mph - N/A   Clear
12:15 PM 57.2 °F - 48.2 °F 72% 30.12 in - NNW 2.3 mph - N/A   Clear
12:45 PM 57.2 °F - 44.6 °F 63% 30.12 in - SE 4.6 mph - N/A   Clear
1:00 PM 58 °F - 45 °F 52% 30.15 in 12 mi SE 4.6 mph - -   Partly Cloudy
1:15 PM 59.0 °F - 48.2 °F 67% 30.12 in - SE 3.5 mph - N/A   Clear
1:45 PM 59.0 °F - 44.6 °F 59% 30.12 in - NW 2.3 mph - N/A   Clear
2:15 PM 60.8 °F - 35.6 °F 39% 30.12 in - West 3.5 mph - N/A   Clear
2:45 PM 62.6 °F - 33.8 °F 34% 30.12 in - WNW 2.3 mph - N/A   Clear
3:15 PM 62.6 °F - 32.0 °F 32% 30.15 in - NW 2.3 mph - N/A   Clear
3:45 PM 62.6 °F - 30.2 °F 30% 30.15 in - SW 1.2 mph - N/A   Clear
4:15 PM 62.6 °F - 32.0 °F 32% 30.18 in - SE 5.8 mph - N/A   Clear
4:45 PM 59.0 °F - 39.2 °F 48% 30.18 in - ESE 4.6 mph - N/A   Clear
5:15 PM 55.4 °F - 42.8 °F 63% 30.18 in - SE 4.6 mph - N/A   Clear
5:45 PM 53.6 °F - 42.8 °F 67% 30.21 in - NE 4.6 mph - N/A   Clear
6:15 PM 51.8 °F - 42.8 °F 71% 30.21 in - East 4.6 mph - N/A   Clear
6:45 PM 50.0 °F - 41.0 °F 71% 30.24 in - NNW 3.5 mph - N/A   Clear
7:00 PM 50 °F - 42 °F 65% 30.25 in 6 mi NNW 3.5 mph - -  
7:15 PM 48.2 °F - 41.0 °F 76% 30.24 in - ENE 2.3 mph - N/A   Clear
7:45 PM 46.4 °F 42.9 °F 41.0 °F 81% 30.24 in - East 6.9 mph - N/A   Clear
11:15 PM 42.8 °F 38.6 °F 39.2 °F 87% 30.01 in - SE 6.9 mph - N/A   Clear
11:45 PM 42.8 °F 39.3 °F 39.2 °F 87% 30.33 in - SSE 5.8 mph - N/A   Clear